RH
20 20 20 20 20 20 18 13 10 8 7 6 6 7 7 7 8 9 9 9 9 10 11 12 12 11 10 18 15 14 14 11 10 11 11 16 22 25 21 26 30 27 34 41 45 44 42
14 14 14 14 13 13 14 14 11 9 7 7 8 7 7 7 8 9 9 9 9 10 12 12 13 12 14 19 13 16 17 17 12 10 12 16 21 23 31 33 28 37 36 40 42 42 43
36 35 27 19 15 12 10 9 8 8 7 7 7 7 7 8 8 8 9 10 10 9 11 15 16 14 20 15 13 16 15 15 13 12 12 17 24 28 33 33 40 37 34 35 38 39 38
80 78 77 71 55 37 22 14 11 9 8 8 7 7 7 7 7 8 8 9 10 10 11 15 18 19 21 16 18 17 15 15 15 14 15 20 25 26 36 36 31 29 31 31 32 37 43
92 90 83 77 76 74 59 40 21 14 12 11 9 9 8 8 8 8 8 8 9 10 12 16 18 23 25 20 19 18 16 17 17 19 24 27 26 35 36 28 26 31 20 28 28 36 38
97 94 89 84 82 77 79 70 60 36 18 14 13 12 10 10 9 9 8 8 8 10 15 20 23 27 21 24 22 19 19 18 19 23 29 28 30 26 29 24 16 17 24 21 21 35 37
100 96 99 90 83 80 79 80 77 71 57 33 20 16 14 13 11 10 9 9 9 15 19 17 18 21 21 24 25 23 22 20 21 25 21 30 22 21 18 19 14 13 17 17 19 32 36
100 92 97 100 91 81 76 76 82 84 79 71 55 34 21 16 14 12 12 13 18 20 34 10 12 24 26 30 30 28 26 26 29 21 25 24 20 13 22 27 21 19 17 17 22 40 39
46 44 47 79 92 88 76 74 84 88 88 89 81 70 52 28 17 12 12 17 18 24 32 18 25 32 32 31 32 32 26 29 25 26 25 17 19 21 19 28 26 22 19 17 17 41 41
24 31 39 42 46 49 51 62 77 91 95 93 90 85 80 59 19 16 12 13 17 26 25 21 38 41 39 36 31 36 32 32 33 24 28 21 22 25 25 21 21 20 20 21 25 26 22
18 18 18 21 28 38 44 60 99 100 100 100 96 96 92 85 40 16 16 12 14 31 47 29 38 36 40 40 43 38 36 39 33 30 28 24 35 36 33 24 22 20 26 26 28 27 32
16 18 20 21 21 22 25 66 93 96 96 96 97 100 100 98 84 23 16 14 20 28 55 24 41 37 38 41 40 36 34 35 35 33 30 28 35 34 28 34 26 32 29 31 31 28 39
11 13 16 20 23 24 23 24 39 88 98 88 100 98 99 99 98 74 15 23 30 33 19 22 38 38 36 33 37 35 32 34 32 49 34 32 31 35 36 34 34 29 26 35 36 44 30
32 23 22 22 22 26 27 29 29 39 67 98 92 96 99 94 89 99 21 31 50 27 20 32 40 40 36 30 32 37 33 28 30 30 32 41 37 36 33 29 31 31 23 30 30 34 26
55 48 67 52 36 34 33 28 31 40 59 86 94 89 87 82 78 85 39 62 51 32 19 28 36 37 29 34 29 35 35 29 21 26 24 28 24 36 39 33 29 33 33 22 24 33 32
75 57 60 77 77 67 52 47 38 33 34 72 90 98 99 97 99 90 67 79 42 26 30 37 35 25 24 28 34 36 32 25 25 23 17 16 22 36 33 33 33 32 24 31 29 41 34
79 69 56 57 57 58 67 58 54 38 33 36 97 98 96 99 93 66 96 76 52 41 30 42 46 40 31 29 34 33 27 25 27 30 23 18 23 32 35 40 30 37 31 34 32 34 38
69 75 68 55 57 57 54 57 63 54 41 58 99 86 95 98 92 99 93 73 50 43 38 43 52 54 60 42 42 39 30 24 31 30 29 21 22 24 32 29 27 28 26 26 33 37 34
61 61 61 62 67 64 63 54 78 78 61 98 88 92 96 92 92 87 75 71 63 54 55 60 82 65 58 65 88 72 56 35 40 39 36 29 25 28 28 29 28 36 34 31 25 36 37
85 84 67 80 82 71 70 62 64 86 68 82 96 97 99 100 99 90 89 98 98 87 77 70 93 86 98 99 65 88 71 44 42 49 55 44 44 27 31 25 26 32 33 35 32 44 32
74 74 73 69 72 72 74 68 60 82 77 76 97 91 80 98 99 97 99 100 99 92 86 95 99 96 86 100 97 93 75 69 59 57 55 57 56 45 33 34 31 30 28 34 39 33 39
75 81 83 75 69 75 76 70 60 80 84 86 95 80 83 91 97 99 99 100 88 76 90 95 99 78 86 99 96 99 90 92 88 81 86 85 74 51 48 40 64 52 37 29 38 34 32
79 72 74 82 79 77 79 80 71 71 96 83 85 81 83 77 95 99 83 71 82 91 84 85 80 98 96 90 98 98 99 98 86 94 95 96 95 94 87 58 88 94 79 55 35 40 42
78 77 69 77 80 77 81 82 73 59 98 86 78 95 98 84 78 73 71 82 81 76 94 83 94 99 98 100 98 98 100 100 100 98 98 96 95 96 91 95 94 62 52 62 62 61 56
80 81 74 77 79 67 69 86 80 78 82 100 91 88 99 100 98 95 92 84 75 84 94 98 95 98 99 99 93 94 90 95 91 94 98 98 96 96 94 91 73 68 59 54 56 75 90
79 78 74 73 68 69 61 86 83 77 78 98 96 92 94 98 81 83 79 84 92 91 90 99 99 97 98 95 93 92 86 92 92 90 87 95 96 96 95 94 89 49 43 47 67 89 80
98 98 83 73 69 62 71 87 85 83 78 99 98 99 94 99 97 97 93 95 99 100 99 97 99 98 98 90 89 87 87 94 93 92 88 92 94 93 93 94 86 72 45 48 95 87 62
80 88 76 76 71 68 82 88 91 77 67 99 97 100 99 99 90 93 96 99 99 98 98 99 96 95 91 92 90 86 93 94 93 93 92 91 92 90 94 94 90 50 41 89 70 70 63
78 87 87 95 89 88 90 86 49 49 74 94 100 100 99 100 99 99 99 98 95 99 99 98 99 97 95 92 93 94 92 91 92 90 88 92 94 93 94 93 94 59 53 57 61 59 60
Wind_Speed
10 11 12 13 15 16 17 18 18 18 17 15 15 15 14 14 13 14 16 14 11 12 12 11 9 8 7 6 9 7 5 4 3 4 3 5 4 4 4 5 3 2 5 3 4 6 9
12 11 10 10 12 13 15 15 16 18 18 19 19 18 16 16 15 15 14 15 16 12 10 12 11 8 7 6 8 7 6 5 5 5 5 5 5 5 8 3 1 4 7 8 5 7 7
12 13 15 15 14 13 13 13 13 14 15 17 18 20 20 20 19 17 16 15 15 16 13 11 10 9 10 12 9 7 6 5 4 5 6 6 8 3 7 6 6 10 5 4 6 8 5
11 13 13 13 14 15 15 14 14 14 14 14 14 15 17 19 20 21 20 18 16 15 15 12 10 10 7 10 9 7 5 4 4 5 7 8 8 8 3 12 4 4 3 5 8 11 4
11 12 13 15 16 16 16 16 15 14 15 17 16 16 16 16 18 19 20 21 19 16 14 13 10 8 7 7 8 7 5 4 5 6 8 11 9 5 6 5 4 5 6 9 4 15 6
11 13 13 14 15 15 14 14 16 17 16 16 17 17 17 18 19 19 18 18 18 15 13 12 12 6 11 6 6 7 6 7 5 8 7 6 4 5 4 8 9 8 7 6 8 10 12
14 14 15 15 14 14 14 15 15 15 16 17 18 19 18 18 19 21 20 17 6 3 4 8 9 9 7 7 6 7 8 8 7 5 6 3 7 12 18 17 5 3 7 8 4 6 10
15 16 14 14 13 14 14 15 15 15 16 15 16 18 18 19 19 19 16 8 6 8 11 16 22 24 18 9 6 10 9 8 7 9 5 4 13 11 2 9 9 8 10 12 2 5 9
17 18 18 16 17 16 17 18 15 15 15 17 16 17 17 17 15 11 14 11 11 12 6 7 8 6 7 11 7 7 13 7 6 8 12 14 0 4 9 9 12 13 16 11 6 5 9
19 19 19 19 19 20 21 19 17 16 17 17 17 16 17 16 6 12 6 12 11 10 4 4 3 1 2 2 5 7 12 5 4 8 6 9 4 7 8 11 13 14 12 9 8 6 7
22 22 22 22 22 21 20 19 17 17 18 17 18 18 17 15 11 9 9 7 6 4 6 2 2 3 5 5 4 2 7 4 6 7 6 3 7 9 9 7 15 2 5 8 6 10 5
23 24 23 23 23 22 22 18 17 17 18 18 19 19 17 15 13 7 8 4 1 1 7 2 1 2 3 4 4 1 2 3 1 3 5 4 1 4 3 3 7 12 8 5 3 3 7
25 25 24 24 24 24 24 23 21 18 19 17 16 18 18 16 12 11 6 1 1 5 2 1 2 2 2 4 5 8 6 7 6 5 10 4 7 2 3 5 4 7 10 4 5 5 8
22 23 23 23 22 22 22 22 22 20 22 21 21 20 17 16 15 13 4 1 7 4 8 1 1 2 6 7 5 7 5 8 14 6 1 7 6 13 14 7 7 18 11 6 7 7 2
18 19 20 21 21 20 20 20 20 20 18 16 17 21 23 20 14 10 4 3 7 6 5 3 2 5 6 4 3 7 10 7 9 20 12 9 7 2 3 1 3 8 11 3 5 1 4
18 16 16 16 19 19 19 18 18 19 18 18 17 16 14 16 12 9 3 7 4 5 4 1 8 5 10 3 5 8 11 5 7 19 24 5 8 5 5 3 3 6 3 4 4 6 8
20 18 17 17 18 18 18 18 17 17 16 15 14 7 9 11 9 7 4 6 5 16 12 4 8 10 14 6 9 5 6 3 8 6 14 7 7 4 3 12 18 7 7 6 3 4 4
24 22 21 20 17 17 19 17 16 15 14 10 7 5 8 10 4 2 2 5 3 5 8 5 6 13 18 15 13 13 13 10 3 6 10 10 5 12 14 1 5 12 13 16 8 9 6
24 25 24 22 18 16 16 16 13 11 14 8 6 8 9 13 5 6 4 5 5 1 7 2 4 11 7 8 7 19 18 1 2 2 3 3 8 10 6 3 2 8 13 10 13 3 18
20 19 21 20 18 17 17 16 14 10 12 10 6 2 4 12 5 5 5 4 4 6 8 9 6 7 5 8 15 9 9 5 2 5 7 5 6 14 17 13 3 8 13 20 15 8 15
25 24 23 23 20 19 18 17 15 12 9 13 11 6 7 4 6 7 4 2 5 6 8 7 3 11 12 6 9 19 21 23 18 10 2 3 10 9 6 5 4 5 6 19 25 30 14
24 23 21 22 23 21 18 16 15 13 10 15 8 5 6 5 5 8 7 4 7 9 5 5 10 16 11 9 13 19 14 5 10 3 7 6 9 8 15 6 6 7 10 9 19 20 20
25 26 25 22 21 20 20 17 16 16 14 12 17 22 12 7 4 4 5 8 7 5 9 18 14 10 16 17 16 24 29 22 11 7 11 8 5 6 15 14 6 11 19 18 10 9 14
23 24 24 24 23 20 20 19 17 19 21 20 19 14 9 8 10 12 12 13 9 14 14 13 15 9 6 13 15 15 15 15 16 13 11 7 8 4 7 4 7 3 2 3 8 4 10
24 24 24 25 24 22 20 20 18 18 23 24 23 24 8 3 6 7 13 15 15 13 12 16 18 16 14 6 3 5 3 3 8 4 6 2 6 4 4 7 8 6 3 3 5 4 2
24 24 23 23 24 23 22 21 20 19 22 24 28 24 19 4 7 16 10 8 5 5 5 7 11 9 4 2 3 4 4 4 4 2 0 4 1 3 3 5 7 4 2 2 2 5 2
24 23 22 23 24 22 21 21 21 21 21 21 28 28 23 8 9 11 7 3 4 3 4 3 2 2 5 2 3 4 4 2 4 3 3 3 3 9 6 5 5 3 5 1 4 2 3
22 21 21 24 23 21 21 22 22 22 19 23 24 23 26 11 14 14 11 9 8 4 3 1 3 2 3 3 3 2 2 2 4 1 2 4 5 3 3 3 6 3 4 2 3 3 5
21 20 18 16 17 20 23 23 21 21 18 19 19 16 20 15 5 7 11 13 13 12 8 4 3 3 5 3 3 2 3 2 2 3 1 1 3 3 3 2 3 6 5 4 2 5 9
Wind_Direction
21 16 14 9 5 2 1 360 358 355 353 350 347 344 342 341 341 338 335 332 331 327 323 321 319 308 295 273 259 259 275 271 256 240 212 215 202 158 157 133 135 140 140 88 123 136 139
17 15 16 13 7 360 356 354 355 355 352 348 346 343 341 337 334 332 330 329 326 319 313 312 310 307 287 253 255 261 275 262 255 226 211 200 209 167 111 96 266 106 120 123 147 145 152
31 26 17 10 8 5 0 354 351 350 349 348 346 343 340 336 331 327 325 323 321 316 310 306 301 295 276 263 259 256 271 260 235 218 190 180 160 155 127 117 123 134 124 146 172 175 162
31 25 19 14 10 5 0 357 352 347 344 341 339 339 338 335 333 330 326 321 316 313 306 299 293 287 258 256 251 256 257 238 220 191 177 167 161 139 102 123 108 174 198 207 165 176 173
353 2 4 3 2 358 357 356 351 349 344 339 337 336 334 331 329 328 327 323 317 308 297 291 288 275 267 251 237 232 226 205 196 175 163 154 154 111 133 172 176 203 237 219 190 201 157
328 331 335 342 344 345 347 348 351 349 344 339 336 334 334 332 329 326 327 324 317 303 292 289 266 277 248 243 218 212 207 190 178 171 150 160 129 172 175 197 229 210 220 222 224 191 206
315 310 315 324 326 328 333 336 336 340 344 342 338 334 334 333 330 330 331 344 350 349 325 268 276 247 275 235 224 213 203 192 172 188 208 177 207 211 208 212 242 186 220 228 207 171 203
298 306 306 302 311 316 322 324 322 326 329 334 337 336 336 334 334 338 347 10 356 309 302 285 261 251 252 243 266 227 201 187 192 214 160 188 234 236 122 193 200 204 227 235 186 167 214
300 300 301 299 299 301 304 306 309 315 322 322 328 332 336 337 336 347 352 7 353 341 279 292 252 253 247 240 248 222 198 197 209 210 208 229 275 167 179 178 199 220 228 225 251 167 233
293 295 296 297 299 300 299 296 294 300 308 310 315 321 328 338 350 335 343 346 349 340 285 236 168 186 164 227 258 211 199 202 195 239 207 245 194 177 190 211 203 227 216 216 191 201 249
291 295 297 299 299 299 300 301 302 301 304 305 306 313 323 338 332 337 331 336 347 356 308 72 166 175 160 151 322 234 205 219 237 189 194 218 192 188 209 219 188 229 150 187 201 228 272
288 289 288 291 293 295 297 296 294 299 303 303 304 308 315 322 325 331 341 339 25 180 246 277 164 178 166 184 173 215 251 233 188 198 230 265 313 237 258 100 189 140 113 98 115 210 245
290 291 291 290 291 293 295 296 291 293 294 294 298 301 305 308 310 315 319 312 235 217 327 277 289 219 258 201 205 184 183 207 213 187 226 202 213 183 176 138 126 200 168 193 215 208 249
297 294 295 294 293 294 292 293 292 290 274 283 286 297 297 298 300 304 266 8 215 243 257 95 160 188 225 179 220 196 199 229 225 235 178 213 244 181 183 223 204 198 212 208 231 216 227
309 303 302 300 300 300 298 294 290 290 294 296 286 284 286 288 286 274 171 219 213 206 267 284 254 238 234 218 227 197 223 245 220 196 211 203 235 178 196 173 188 179 218 298 288 136 269
311 308 303 302 306 306 302 300 299 294 288 279 285 276 274 282 272 209 170 225 242 254 310 278 276 257 272 276 214 207 191 208 234 199 217 231 258 188 155 173 204 237 146 180 217 234 241
299 302 304 306 304 299 303 304 299 296 290 283 275 275 252 243 210 178 222 219 239 247 245 239 266 274 269 281 222 239 255 257 226 196 205 218 222 139 162 209 196 176 199 221 271 234 256
289 294 298 300 300 302 294 295 301 298 288 276 258 253 224 192 129 243 197 196 260 246 259 243 258 256 264 266 278 269 259 247 16 171 186 216 261 239 208 144 327 247 225 196 210 200 236
287 285 286 288 291 297 304 288 291 301 288 273 254 245 210 202 237 231 247 256 238 243 244 187 254 233 284 264 245 231 257 242 36 296 4 282 228 241 216 208 145 216 214 235 255 339 237
280 285 279 280 285 291 297 295 276 286 286 249 260 216 168 212 260 286 256 219 220 231 243 252 245 263 253 246 238 263 249 219 137 164 341 19 293 255 253 267 134 205 204 208 201 229 247
279 280 282 280 279 282 288 296 270 270 277 242 232 236 220 187 218 209 181 252 221 265 228 199 234 219 240 259 251 245 254 255 256 230 167 168 245 269 310 314 298 291 239 209 209 226 220
277 272 277 279 277 278 278 284 282 261 260 242 250 243 242 259 156 179 194 199 260 264 221 244 240 278 270 241 251 286 298 241 238 159 208 161 259 257 272 242 3 296 270 239 235 247 250
281 278 272 276 277 272 272 278 283 249 247 243 244 249 261 255 192 193 217 234 236 211 232 252 277 291 281 274 264 276 275 264 248 191 185 182 212 214 254 252 300 277 245 231 216 228 229
281 285 273 271 275 272 269 268 274 252 240 249 245 250 241 251 237 238 251 231 246 264 258 268 279 264 284 301 304 285 273 261 230 217 192 187 196 201 263 139 224 281 47 9 247 270 233
281 282 279 268 273 271 268 261 271 270 237 246 247 241 243 257 230 235 244 248 274 278 266 269 268 259 280 295 288 292 246 254 235 222 190 243 182 206 229 216 307 247 178 173 190 240 326
286 281 279 270 269 272 267 256 265 268 245 249 247 246 240 248 238 261 266 232 253 243 255 225 261 265 237 247 240 248 257 287 235 224 216 180 173 218 162 248 235 66 104 131 220 257 141
282 284 274 272 269 266 259 257 264 264 255 250 249 240 227 232 241 231 240 232 240 272 282 255 241 216 203 223 245 256 252 318 271 257 161 172 190 213 207 236 282 76 106 100 219 10 141
278 287 279 276 264 260 253 259 267 268 256 258 259 229 217 225 243 232 227 222 250 248 257 307 280 193 198 232 251 259 277 348 292 8 208 214 188 195 169 212 248 15 109 262 345 24 121
278 284 283 272 261 259 260 263 262 262 248 242 241 240 235 242 245 236 239 246 250 245 254 237 283 202 225 242 240 282 271 236 273 281 357 294 356 325 300 27 74 40 30 13 12 128 126